STARLINK-1522, 46027

Orbit data source: Space-Track

STARLINK-1522, 46027 is a payload satellite owned by SpaceX/Seattle (US) in LEO that was launched on Fri, 07 Aug 2020 UTC via an FALCON 9 launch vehicle from the Air Force Eastern Test Range (AFETR). Payload-class satellites include a variety of spacecraft equipped with specific instruments for various scientific and technological missions. These include communications satellites like Starlink; space stations such as the ISS; scientific satellites like the Hubble; Earth observation satellites from companies like Planet Labs, Umbra, and HawkEye 360; GPS; miniature CubeSats for education and research; and military/defense satellites.

Loading next visibility...
Identifier
46027, 2020-055A
Orbit
LEO
Country
Flag of USUS
Related business
Manufacturer
SpaceX/Seattle
Mission
Operational Commercial Communications
Bus & Motor
STARLINK, Unknown motor
Mass
260 kg wet, ~248 kg dry
Launch date (UTC)
2020-08-07 (5 years ago)
Launch vehicle
FALCON 9
Launch site
Air Force Eastern Test Range (AFETR)
Object type
Payload
Rocket body
Debris
Shape & HBR
Box + 1 Pan, 4.4 m
Radar Cross Section
13.562 m², Large (>1 m²)

Expand to show TLE details & history
Last TLE update: 19 hours ago

TLE from 19 hours ago
0 STARLINK-1522
1 46027U 20055A   25258.53989515  .00000383  00000-0  44614-4 0  9995
2 46027  53.0547 192.8972 0000999  96.5687 263.5416 15.06401193282482
Epoch: 2025-09-15T12:57Z
TLE epoch observation values (Epoch: 2025-09-15T12:57:26.94Z)
Latitude
-0.00002°
Longitude
3.79184°
Altitude
548.165 km
Speed
7.589 km/s
True Right ascension
12h 51m 35s
True Declination
0° 00' 00"
Sunlit
Object was in daylight at epoch
Visualization orbit readout
Latitude
Unknown
Longitude
Unknown
Altitude
Unknown
Speed
Unknown
Apparent Right ascension
Unknown
Apparent Declination
Unknown
Sunlit
N/A
Visualization observer readout
Local Sidereal Time
00:36:20
Azimuth
Unknown
Elevation
Unknown
Doppler factor
Unknown
Orbital elements
Apogee altitude
548.17 km
Perigee altitude
546.787 km
Semi-major axis
6,925.616 km
Eccentricity
0.0001
Inclination
53.0547°
RAAN
192.8972°
Arg. of periapsis
96.5687°
True anomaly
263.53023°
Mean anomaly
263.5416°
Eccentric anomaly
263.53591°
Mean motion
3.76579 °/min
Orbital period
95.6 mins
BSTAR
0.000044614
Loading maneuver chart data...
Computing Atmospheric mass density...
Loading historical data...
Loading historical data...
Loading historical data...
Loading historical data...
Loading historical data...
Loading historical data...
Loading historical data...

Documentation

Showing up to 5 results
|